GW2489 Weather Reports


time (UTC)temp
F
wind
direction
speed
knots
gust
knots
rain 1hr
in
rain 24hr
in
rain mn
in
humidity
%
barometer
mb
20260906224034 92 312 0.9 4.3 0.00 0.00 0.00 29 1016.0
20260906223534 91 334 0.9 4.3 0.00 0.00 0.00 29 1016.1
20260906223105 91 28 0.9 2.6 0.00 0.00 0.00 29 1016.3
20260906222538 91 19 0.0 2.6 0.00 0.00 0.00 30 1016.4
20260906222034 90 314 0.0 3.5 0.00 0.00 0.00 30 1016.5
20260906221600 90 121 0.9 3.5 0.00 0.00 0.00 30 1016.6
20260906221034 90 55 0.9 3.5 0.00 0.00 0.00 29 1016.6
20260906220537 90 335 0.0 2.6 0.00 0.00 0.00 29 1016.7
20260906220058 91 324 0.9 2.6 0.00 0.00 0.00 29 1016.8
20260906215534 90 350 0.9 3.5 0.00 0.00 0.00 29 1016.8
20260906215034 90 73 0.9 3.5 0.00 0.00 0.00 29 1017.0
20260906214554 90 19 0.9 2.6 0.00 0.00 0.00 29 1016.9
20260906214037 90 324 0.9 3.5 0.00 0.00 0.00 29 1017.1
20260906213536 89 0 0.0 3.5 0.00 0.00 0.00 29 1017.1
20260906213055 89 0 0.0 3.5 0.00 0.00 0.00 29 1017.0
20260906212535 89 53 0.0 3.5 0.00 0.00 0.00 29 1017.1
20260906212034 88 136 0.0 4.3 0.00 0.00 0.00 30 1017.3
20260906211602 88 78 0.9 4.3 0.00 0.00 0.00 30 1017.4
20260906211034 88 159 1.7 3.5 0.00 0.00 0.00 30 1017.5
20260906210536 89 0 0.0 4.3 0.00 0.00 0.00 29 1017.6
20260906205535 88 65 0.9 7.0 0.00 0.00 0.00 30 1017.7
20260906205037 88 0 0.9 5.2 0.00 0.00 0.00 31 1017.8
20260906204600 88 0 0.9 5.2 0.00 0.00 0.00 31 1017.9
20260906204038 88 89 0.9 5.2 0.00 0.00 0.00 32 1018.0
20260906203537 88 10 0.9 5.2 0.00 0.00 0.00 32 1018.2
20260906203058 88 102 0.0 5.2 0.00 0.00 0.00 32 1018.3
20260906202534 88 85 0.9 2.6 0.00 0.00 0.00 33 1018.2
20260906202034 87 0 0.0 2.6 0.00 0.00 0.00 32 1018.1
20260906201557 88 59 0.0 5.2 0.00 0.00 0.00 33 1018.2
20260906201038 87 0 0.0 7.0 0.00 0.00 0.00 33 1018.2
20260906200534 87 67 0.9 7.0 0.00 0.00 0.00 32 1018.3
20260906200053 86 0 0.0 2.6 0.00 0.00 0.00 33 1018.4
20260906195533 86 0 0.0 5.2 0.00 0.00 0.00 33 1018.5
20260906195040 86 0 0.9 5.2 0.00 0.00 0.00 33 1018.5
20260906194549 85 0 0.0 3.5 0.00 0.00 0.00 32 1018.6
20260906194035 86 0 0.0 3.5 0.00 0.00 0.00 31 1018.7
20260906193537 86 0 0.9 6.1 0.00 0.00 0.00 35 1018.5
20260906193057 86 0 0.9 6.1 0.00 0.00 0.00 36 1018.7
20260906192535 85 0 0.0 2.6 0.00 0.00 0.00 37 1018.7
20260906192034 84 0 0.0 6.1 0.00 0.00 0.00 38 1018.8
20260906191548 85 0 0.0 6.1 0.00 0.00 0.00 35 1018.9
20260906191034 86 0 0.0 4.3 0.00 0.00 0.00 35 1019.1
20260906190534 85 0 0.0 4.3 0.00 0.00 0.00 36 1018.9
20260906190050 84 27 0.9 3.5 0.00 0.00 0.00 35 1019.1
20260906185537 84 124 0.0 0.9 0.00 0.00 0.00 36 1019.2
20260906185034 84 0 0.0 0.9 0.00 0.00 0.00 35 1019.2
20260906184548 84 0 0.0 2.6 0.00 0.00 0.00 36 1019.4
20260906184034 84 0 0.0 4.3 0.00 0.00 0.00 37 1019.4
20260906183534 84 0 0.9 4.3 0.00 0.00 0.00 37 1019.5
20260906183044 83 0 0.0 0.9 0.00 0.00 0.00 37 1019.5
20260906182536 83 0 0.0 0.9 0.00 0.00 0.00 38 1019.8
20260906182034 83 0 0.0 0.9 0.00 0.00 0.00 38 1019.9
20260906181557 82 0 0.0 0.9 0.00 0.00 0.00 36 1020.0
20260906181035 82 0 0.0 0.9 0.00 0.00 0.00 36 1020.2
20260906180535 82 0 0.0 1.7 0.00 0.00 0.00 38 1020.2
20260906180105 82 0 0.0 7.0 0.00 0.00 0.00 37 1020.2
20260906175537 81 75 0.9 7.0 0.00 0.00 0.00 37 1020.3
20260906175037 81 0 0.0 1.7 0.00 0.00 0.00 41 1020.4
20260906174547 81 0 0.0 0.0 0.00 0.00 0.00 38 1020.5
20260906174035 82 0 0.0 0.0 0.00 0.00 0.00 38 1020.6
20260906173535 82 0 0.0 0.0 0.00 0.00 0.00 39 1020.7
20260906173054 80 0 0.0 0.0 0.00 0.00 0.00 40 1020.8
20260906172536 79 0 0.0 0.9 0.00 0.00 0.00 43 1020.9
20260906172034 79 0 0.0 0.9 0.00 0.00 0.00 42 1021.0
20260906171559 79 0 0.0 0.9 0.00 0.00 0.00 40 1021.0
20260906171033 78 0 0.0 0.9 0.00 0.00 0.00 42 1021.2
20260906170535 78 0 0.0 0.9 0.00 0.00 0.00 42 1021.3
20260906170103 78 0 0.0 0.9 0.00 0.00 0.00 43 1021.3
20260906165619 77 0 0.0 2.6 0.00 0.00 0.00 45 1021.4
20260906165034 77 70 0.0 2.6 0.00 0.00 0.00 46 1021.3
20260906164546 77 0 0.0 2.6 0.00 0.00 0.00 47 1021.3
20260906164034 77 0 0.0 0.0 0.00 0.00 0.00 48 1021.4
20260906163534 76 0 0.0 0.0 0.00 0.00 0.00 49 1021.3
20260906163109 76 0 0.0 0.0 0.00 0.00 0.00 50 1021.3
20260906162537 75 0 0.0 0.9 0.00 0.00 0.00 50 1021.4
20260906162033 75 0 0.0 0.9 0.00 0.00 0.00 52 1021.2
20260906161550 75 0 0.0 0.9 0.00 0.00 0.00 52 1021.3
20260906161037 75 0 0.0 0.0 0.00 0.00 0.00 52 1021.3
20260906160537 75 0 0.0 0.0 0.00 0.00 0.00 52 1021.4
20260906160053 75 0 0.0 1.7 0.00 0.00 0.00 53 1021.3
20260906155536 75 0 0.0 1.7 0.00 0.00 0.00 54 1021.3
20260906155036 74 0 0.0 2.6 0.00 0.00 0.00 53 1021.3
20260906154559 74 0 0.0 2.6 0.00 0.00 0.00 54 1021.4
20260906154034 73 0 0.0 0.0 0.00 0.00 0.00 56 1021.5
20260906153538 73 0 0.0 0.0 0.00 0.00 0.00 57 1021.5
20260906153052 73 0 0.0 0.0 0.00 0.00 0.00 58 1021.5
20260906152535 72 0 0.0 0.0 0.00 0.00 0.00 57 1021.5
20260906152036 72 0 0.0 2.6 0.00 0.00 0.00 59 1021.5
20260906151549 71 0 0.0 2.6 0.00 0.00 0.00 62 1021.6
20260906151036 71 0 0.0 1.7 0.00 0.00 0.00 64 1021.7
20260906150535 70 0 0.0 2.6 0.00 0.00 0.00 65 1021.7
20260906150109 70 0 0.0 2.6 0.00 0.00 0.00 66 1021.7
20260906145534 69 0 0.0 1.7 0.00 0.00 0.00 67 1021.7
20260906145036 69 0 0.0 3.5 0.00 0.00 0.00 68 1021.7
20260906144551 68 0 0.0 3.5 0.00 0.00 0.00 67 1021.5
20260906144035 68 333 0.0 1.7 0.00 0.00 0.00 68 1021.5
20260906143534 68 0 0.0 0.9 0.00 0.00 0.00 67 1021.5
20260906143052 69 0 0.0 0.9 0.00 0.00 0.00 68 1021.7
20260906142538 68 0 0.0 0.0 0.00 0.00 0.00 69 1021.5
20260906142039 68 0 0.0 0.0 0.00 0.00 0.00 69 1021.7
20260906141549 68 0 0.0 0.0 0.00 0.00 0.00 70 1021.7
20260906141035 67 0 0.0 0.9 0.00 0.00 0.00 71 1021.7
20260906140536 66 0 0.0 0.9 0.00 0.00 0.00 73 1021.7
20260906140059 66 348 0.0 3.5 0.00 0.00 0.00 74 1021.5
20260906135536 65 0 0.0 3.5 0.00 0.00 0.00 74 1021.4
20260906135036 65 0 0.0 1.7 0.00 0.00 0.00 74 1021.3
20260906134551 64 0 0.0 4.3 0.00 0.00 0.00 74 1021.4
20260906134039 64 0 0.0 4.3 0.00 0.00 0.00 75 1021.3
20260906133540 63 0 0.0 0.0 0.00 0.00 0.00 77 1021.3
20260906133111 62 0 0.0 0.0 0.00 0.00 0.00 77 1021.3
20260906132541 62 0 0.0 0.0 0.00 0.00 0.00 78 1021.3
20260906132037 61 0 0.0 0.0 0.00 0.00 0.00 79 1021.1
20260906131547 61 0 0.0 0.0 0.00 0.00 0.00 79 1021.3
20260906131038 61 0 0.0 0.0 0.00 0.00 0.00 78 1021.1
20260906130536 60 0 0.0 0.0 0.00 0.00 0.00 78 1021.1
20260906130107 60 0 0.0 0.0 0.00 0.00 0.00 77 1021.2
20260906125536 60 0 0.0 0.9 0.00 0.00 0.00 77 1021.2
20260906125035 60 0 0.0 1.7 0.00 0.00 0.00 78 1021.2
20260906124550 60 0 0.0 1.7 0.00 0.00 0.00 77 1021.1
20260906124036 60 0 0.0 0.9 0.00 0.00 0.00 77 1021.0
20260906123536 60 0 0.0 0.9 0.00 0.00 0.00 76 1021.1
20260906123049 60 0 0.0 0.0 0.00 0.00 0.00 75 1020.9
20260906122536 60 0 0.0 0.0 0.00 0.00 0.00 75 1020.9
20260906122034 60 0 0.0 0.0 0.00 0.00 0.00 75 1020.9
20260906121556 60 0 0.0 0.0 0.00 0.00 0.00 74 1021.1
20260906121034 60 0 0.0 0.0 0.00 0.00 0.00 74 1021.0
20260906120534 61 0 0.0 0.0 0.00 0.00 0.00 73 1020.9
20260906120053 61 0 0.0 0.0 0.00 0.00 0.00 72 1021.1
20260906115534 61 0 0.0 0.0 0.00 0.00 0.00 72 1021.2
20260906115034 61 0 0.0 0.0 0.00 0.00 0.00 73 1021.3
20260906114553 61 0 0.0 0.0 0.00 0.00 0.00 72 1021.2
20260906114035 61 0 0.0 0.0 0.00 0.00 0.00 72 1021.1
20260906113534 61 0 0.0 0.0 0.00 0.00 0.00 72 1021.0
20260906113050 62 0 0.0 0.0 0.00 0.00 0.00 73 1020.9
20260906112534 62 0 0.0 0.0 0.00 0.00 0.00 74 1020.9
20260906112034 62 0 0.0 2.6 0.00 0.00 0.00 74 1021.0
20260906111611 62 0 0.0 2.6 0.00 0.00 0.00 75 1020.8
20260906111034 62 0 0.0 1.7 0.00 0.00 0.00 75 1020.7
20260906110534 62 0 0.0 1.7 0.00 0.00 0.00 75 1020.8
20260906110049 62 0 0.0 1.7 0.00 0.00 0.00 74 1020.8
20260906105534 63 0 0.0 2.6 0.00 0.00 0.00 75 1020.7
20260906105039 63 0 0.0 2.6 0.00 0.00 0.00 76 1020.7
20260906104546 63 0 0.0 0.9 0.00 0.00 0.00 76 1020.7
20260906104038 63 0 0.0 0.9 0.00 0.00 0.00 76 1020.8
20260906103537 63 0 0.0 0.9 0.00 0.00 0.00 75 1020.9
20260906103057 63 0 0.0 1.7 0.00 0.00 0.00 75 1020.8
20260906102538 63 345 0.0 2.6 0.00 0.00 0.00 74 1020.9
20260906102037 63 0 0.0 2.6 0.00 0.00 0.00 74 1020.8
20260906101549 63 0 0.0 1.7 0.00 0.00 0.00 73 1020.9
20260906101041 63 338 0.0 1.7 0.00 0.00 0.00 73 1020.7
20260906100536 63 0 0.0 2.6 0.00 0.00 0.00 70 1020.6
20260906100053 63 0 0.0 2.6 0.00 0.00 0.00 67 1020.7
20260906095545 64 0 0.0 0.0 0.00 0.00 0.00 67 1020.4
20260906095038 64 0 0.0 0.0 0.00 0.00 0.00 67 1020.7
20260906094556 64 0 0.0 0.0 0.00 0.00 0.00 65 1020.7
20260906094039 64 0 0.0 0.0 0.00 0.00 0.00 64 1020.8
20260906093538 64 0 0.0 0.0 0.00 0.00 0.00 60 1020.6
20260906093053 65 0 0.0 0.0 0.00 0.00 0.00 59 1020.5
20260906092538 65 0 0.0 0.0 0.00 0.00 0.00 54 1020.6
20260906092036 66 0 0.0 0.0 0.00 0.00 0.00 52 1020.6
20260906091550 66 0 0.0 0.0 0.00 0.00 0.00 53 1020.4
20260906091038 67 0 0.0 0.0 0.00 0.00 0.00 55 1020.4
20260906090538 67 0 0.0 0.0 0.00 0.00 0.00 53 1020.4
20260906090055 67 0 0.0 0.0 0.00 0.00 0.00 52 1020.4
20260906085538 67 0 0.0 0.0 0.00 0.00 0.00 51 1020.4
20260906085036 68 0 0.0 0.0 0.00 0.00 0.00 50 1020.4
20260906084546 68 0 0.0 0.0 0.00 0.00 0.00 48 1020.4
20260906084039 68 0 0.0 2.6 0.00 0.00 0.00 47 1020.3
20260906083536 68 0 0.0 2.6 0.00 0.00 0.00 47 1020.2
20260906083054 68 0 0.0 1.7 0.00 0.00 0.00 47 1020.0
20260906082535 68 0 0.0 2.6 0.00 0.00 0.00 46 1020.0
20260906082038 68 0 0.0 2.6 0.00 0.00 0.00 46 1019.9
20260906081550 68 0 0.0 2.6 0.00 0.00 0.00 47 1019.6
20260906081035 68 0 0.0 2.6 0.00 0.00 0.00 47 1019.6
20260906080538 68 0 0.0 1.7 0.00 0.00 0.00 47 1019.6
20260906080049 68 0 0.0 0.9 0.00 0.00 0.00 50 1019.6
20260906075535 68 0 0.0 1.7 0.00 0.00 0.00 50 1019.7
20260906075035 68 0 0.0 1.7 0.00 0.00 0.00 47 1019.6
20260906074548 68 309 0.0 0.9 0.00 0.00 0.00 48 1019.6
20260906074040 68 0 0.0 0.9 0.00 0.00 0.00 52 1019.7
20260906073536 68 0 0.0 2.6 0.00 0.00 0.00 51 1019.8
20260906073055 68 0 0.0 2.6 0.00 0.00 0.00 51 1019.8
20260906072537 68 0 0.0 0.0 0.00 0.00 0.00 53 1019.7
20260906072039 68 0 0.0 0.0 0.00 0.00 0.00 52 1019.8
20260906071554 69 0 0.0 0.0 0.00 0.00 0.00 50 1019.7
20260906071036 70 0 0.0 0.9 0.00 0.00 0.00 49 1019.8
20260906070538 71 0 0.0 0.9 0.00 0.00 0.00 42 1019.7
20260906070059 72 0 0.0 0.0 0.00 0.00 0.00 44 1019.8
20260906065538 74 0 0.0 0.9 0.00 0.00 0.00 40 1019.7
20260906065039 73 0 0.0 0.9 0.00 0.00 0.00 40 1019.7
20260906064553 72 0 0.0 0.0 0.00 0.00 0.00 41 1019.8
20260906064038 72 0 0.0 2.6 0.00 0.00 0.00 43 1020.0
20260906063536 71 0 0.0 2.6 0.00 0.00 0.00 46 1019.9
20260906063053 72 0 0.0 2.6 0.00 0.00 0.00 45 1019.9
20260906062538 72 296 0.0 2.6 0.00 0.00 0.00 44 1020.1
20260906062035 73 0 0.0 2.6 0.00 0.00 0.00 46 1020.1
20260906061549 74 0 0.0 0.0 0.00 0.00 0.00 42 1020.0
20260906061041 73 0 0.0 2.6 0.00 0.00 0.00 42 1020.0
20260906060538 73 0 0.0 2.6 0.00 0.00 0.00 43 1020.1
20260906060047 72 0 0.0 1.7 0.00 0.00 0.00 48 1020.2
20260906055538 73 0 0.0 0.9 0.00 0.00 0.00 50 1020.1
20260906055038 73 0 0.0 0.0 0.00 0.00 0.00 44 1019.7
20260906054603 73 0 0.0 1.7 0.00 0.00 0.00 44 1019.6
20260906054038 74 0 0.0 3.5 0.00 0.00 0.00 44 1019.6
20260906053538 74 0 0.0 3.5 0.00 0.00 0.00 46 1019.6
20260906053056 74 306 0.0 0.0 0.00 0.00 0.00 43 1020.1
20260906052537 74 0 0.0 0.9 0.00 0.00 0.00 43 1020.6
20260906052038 74 0 0.0 0.9 0.00 0.00 0.00 39 1020.8
20260906051609 74 0 0.0 1.7 0.00 0.00 0.00 41 1021.0
20260906051038 74 0 0.0 1.7 0.00 0.00 0.00 45 1021.1
20260906050541 74 0 0.0 0.9 0.00 0.00 0.00 43 1021.1
20260906050053 74 0 0.0 2.6 0.00 0.00 0.00 42 1021.1
20260906045538 73 0 0.0 3.5 0.00 0.00 0.00 45 1021.0
20260906045041 74 161 0.0 3.5 0.00 0.00 0.00 38 1021.0
20260906044553 75 0 0.0 0.9 0.00 0.00 0.00 37 1020.8
20260906044035 75 0 0.0 0.0 0.00 0.00 0.00 36 1020.6
20260906043534 75 0 0.0 0.0 0.00 0.00 0.00 36 1020.2
20260906043047 75 0 0.0 0.9 0.00 0.00 0.00 37 1020.1
20260906042534 75 0 0.0 0.9 0.00 0.00 0.00 36 1020.1
20260906042036 75 0 0.0 0.0 0.00 0.00 0.00 35 1019.8
20260906041552 76 0 0.0 0.9 0.00 0.00 0.00 35 1019.9
20260906041034 75 0 0.0 1.7 0.00 0.00 0.00 35 1019.9
20260906040533 75 0 0.0 1.7 0.00 0.00 0.00 36 1019.8
20260906040128 75 0 0.0 1.7 0.00 0.00 0.00 36 1019.9
20260906035533 76 0 0.0 0.0 0.00 0.00 0.00 35 1019.8
20260906035035 76 0 0.0 0.9 0.00 0.00 0.00 35 1019.5
20260906034600 76 0 0.0 0.9 0.00 0.00 0.00 34 1019.4
20260906034034 76 0 0.0 0.0 0.00 0.00 0.00 34 1019.4
20260906033534 76 0 0.0 0.0 0.00 0.00 0.00 35 1019.4
20260906033106 76 0 0.0 0.9 0.00 0.00 0.00 35 1019.4
20260906032537 75 0 0.0 0.9 0.00 0.00 0.00 35 1019.5
20260906032034 75 0 0.0 0.0 0.00 0.00 0.00 35 1019.4
20260906031550 75 0 0.0 0.0 0.00 0.00 0.00 34 1019.2
20260906031037 76 0 0.0 2.6 0.00 0.00 0.00 33 1018.9
20260906030534 76 0 0.0 2.6 0.00 0.00 0.00 33 1018.9
20260906030050 76 295 0.0 1.7 0.00 0.00 0.00 32 1018.6
20260906025534 77 0 0.0 1.7 0.00 0.00 0.00 32 1018.5
20260906025033 76 0 0.0 1.7 0.00 0.00 0.00 32 1018.5
20260906024612 76 0 0.0 1.7 0.00 0.00 0.00 32 1018.3
20260906024034 77 0 0.0 0.0 0.00 0.00 0.00 32 1018.2
20260906023533 78 0 0.0 0.9 0.00 0.00 0.00 33 1018.2
20260906023100 78 0 0.0 1.7 0.00 0.00 0.00 31 1018.3
20260906022536 79 0 0.0 1.7 0.00 0.00 0.00 31 1018.3
20260906022034 80 0 0.0 3.5 0.00 0.00 0.00 31 1018.3
20260906021549 80 0 0.0 3.5 0.00 0.00 0.00 29 1018.2
20260906021033 81 345 0.0 1.7 0.00 0.00 0.00 30 1018.1
20260906020534 81 0 0.0 1.7 0.00 0.00 0.00 29 1018.1
20260906020057 80 0 0.0 2.6 0.00 0.00 0.00 30 1018.1
20260906015536 80 0 0.0 2.6 0.00 0.00 0.00 29 1018.0
20260906015034 80 0 0.0 3.5 0.00 0.00 0.00 29 1018.0
20260906014553 80 0 0.0 3.5 0.00 0.00 0.00 30 1018.0
20260906014038 81 0 0.0 1.7 0.00 0.00 0.00 30 1017.9
20260906013537 81 0 0.0 2.6 0.00 0.00 0.00 30 1017.8
20260906013049 81 0 0.0 2.6 0.00 0.00 0.00 30 1017.7
20260906012537 81 315 0.0 2.6 0.00 0.00 0.00 28 1017.8
20260906012040 81 0 0.0 3.5 0.00 0.00 0.00 30 1018.0
20260906011549 81 0 0.0 3.5 0.00 0.00 0.00 28 1018.0
20260906011038 82 0 0.0 4.3 0.00 0.00 0.00 29 1018.0
20260906010538 83 0 0.0 4.3 0.00 0.00 0.00 28 1018.0
20260906010059 83 0 0.0 4.3 0.00 0.00 0.00 27 1018.0
20260906005537 83 0 0.0 4.3 0.00 0.00 0.00 27 1017.9
20260906005038 83 319 0.0 7.8 0.00 0.00 0.00 27 1018.1
20260906004553 84 0 0.0 7.8 0.00 0.00 0.00 26 1018.0
20260906004037 85 341 0.0 1.7 0.00 0.00 0.00 25 1018.0
20260906003537 85 331 0.9 2.6 0.00 0.00 0.00 24 1018.0
20260906003055 86 0 0.0 3.5 0.00 0.00 0.00 23 1018.0
20260906002541 86 0 0.9 3.5 0.00 0.00 0.00 23 1018.0
20260906002038 87 9 0.0 2.6 0.00 0.00 0.00 22 1018.0
20260906001551 87 11 0.9 2.6 0.00 0.00 0.00 22 1018.0
20260906001038 87 344 0.0 2.6 0.00 0.00 0.00 22 1018.0
20260906000538 88 352 0.9 2.6 0.00 0.00 0.00 22 1018.0
20260906000058 88 0 0.0 2.6 0.00 0.00 0.00 21 1018.1
20260905235540 89 10 0.0 2.6 0.00 0.00 0.00 21 1017.9
20260905235039 89 0 0.0 1.7 0.00 0.00 0.00 20 1018.0
20260905234554 90 352 0.0 1.7 0.00 0.00 0.00 20 1017.9
20260905234037 90 0 0.0 1.7 0.00 0.00 0.00 19 1018.0
20260905233538 91 0 0.0 2.6 0.00 0.00 0.00 20 1017.8
20260905233058 91 19 0.0 2.6 0.00 0.00 0.00 20 1017.9
20260905232537 90 0 0.0 0.0 0.00 0.00 0.00 20 1017.8
20260905232037 90 0 0.0 0.9 0.00 0.00 0.00 20 1017.8
20260905231550 90 0 0.0 0.9 0.00 0.00 0.00 20 1017.8
20260905231037 90 0 0.0 0.9 0.00 0.00 0.00 20 1017.7
20260905230537 91 0 0.0 0.9 0.00 0.00 0.00 20 1017.8
20260905230047 91 0 0.0 2.6 0.00 0.00 0.00 19 1017.8
20260905225538 91 0 0.0 2.6 0.00 0.00 0.00 20 1017.7
20260905225038 90 0 0.0 2.6 0.00 0.00 0.00 20 1017.6
20260905224614 91 0 0.0 2.6 0.00 0.00 0.00 19 1017.6